• In Hungary
  • List of Countries
  • For 7 days
  • Water Temperature
  • Satellite Maps
  • Weather Map
  • News
  • Weather Widgets
  • user-avatar
    Login

    Hourly Weather Terensay

    Today, 18 August, Saturday

    Time Temperature Precipitation Wind Pressure Humidity
    00:00 +20°C° 0.3 mm 4 mps 734 mmHg 75%
    01:00 +19°C° 0.3 mm 5 mps 734 mmHg 79%
    02:00 +17°C° 0.1 mm 5 mps 734 mmHg 80%
    03:00 +17°C° 0.1 mm 5 mps 734 mmHg 81%
    04:00 +16°C° 0 mm 5 mps 734 mmHg 80%
    05:00 +16°C° 0.5 mm 5 mps 734 mmHg 79%
    06:00 +15°C° 0.5 mm 5 mps 734 mmHg 78%
    07:00 +15°C° 0.5 mm 5 mps 734 mmHg 77%
    08:00 +16°C° 0.4 mm 5 mps 734 mmHg 75%
    09:00 +17°C° 0.4 mm 6 mps 734 mmHg 73%
    10:00 +19°C° 0 mm 5 mps 734 mmHg 69%
    11:00 +19°C° 0.5 mm 6 mps 734 mmHg 69%
    12:00 +19°C° 0.5 mm 6 mps 734 mmHg 70%
    13:00 +18°C° 0.5 mm 7 mps 734 mmHg 70%
    14:00 +17°C° 0.5 mm 7 mps 734 mmHg 72%
    15:00 +17°C° 0.5 mm 7 mps 734 mmHg 74%
    16:00 +16°C° 0.5 mm 7 mps 734 mmHg 75%
    17:00 +16°C° 0.3 mm 7 mps 734 mmHg 77%
    18:00 +15°C° 0.3 mm 7 mps 734 mmHg 78%
    19:00 +14°C° 0.3 mm 6 mps 734 mmHg 79%
    20:00 +14°C° 0 mm 6 mps 734 mmHg 80%
    21:00 +13°C° 0 mm 6 mps 735 mmHg 81%
    22:00 +13°C° 0 mm 5 mps 735 mmHg 82%
    23:00 +13°C° 0 mm 5 mps 735 mmHg 82%

    Tomorrow, 19 August, Sunday

    Time Temperature Precipitation Wind Pressure Humidity
    00:00 +12°C° 0 mm 5 mps 735 mmHg 83%
    01:00 +12°C° 0 mm 5 mps 735 mmHg 83%
    02:00 +12°C° 0 mm 5 mps 735 mmHg 84%
    03:00 +10°C° 0 mm 5 mps 735 mmHg 84%
    04:00 +10°C° 0 mm 6 mps 735 mmHg 84%
    05:00 +11°C° 0 mm 6 mps 735 mmHg 80%
    06:00 +11°C° 0 mm 7 mps 735 mmHg 76%
    07:00 +11°C° 0 mm 7 mps 735 mmHg 72%
    08:00 +13°C° 0 mm 8 mps 735 mmHg 68%
    09:00 +15°C° 0 mm 8 mps 735 mmHg 64%
    10:00 +16°C° 0 mm 8 mps 736 mmHg 59%
    11:00 +16°C° 0 mm 8 mps 735 mmHg 59%
    12:00 +16°C° 0 mm 8 mps 735 mmHg 58%
    13:00 +16°C° 0 mm 8 mps 735 mmHg 57%
    14:00 +17°C° 0 mm 8 mps 735 mmHg 55%
    15:00 +17°C° 0 mm 7 mps 735 mmHg 53%
    16:00 +18°C° 0 mm 7 mps 735 mmHg 51%
    17:00 +17°C° 0 mm 6 mps 735 mmHg 55%
    18:00 +16°C° 0 mm 6 mps 735 mmHg 58%
    19:00 +15°C° 0 mm 5 mps 735 mmHg 61%
    20:00 +14°C° 0 mm 5 mps 735 mmHg 64%
    21:00 +14°C° 0 mm 5 mps 735 mmHg 67%
    22:00 +13°C° 0 mm 5 mps 735 mmHg 69%
    23:00 +12°C° 0 mm 5 mps 735 mmHg 72%

    Day after tomorrow, 20 August, Monday

    Time Temperature Precipitation Wind Pressure Humidity
    00:00 +12°C° 0 mm 5 mps 735 mmHg 74%
    01:00 +10°C° 0 mm 5 mps 735 mmHg 77%
    02:00 +10°C° 0 mm 5 mps 735 mmHg 78%
    03:00 +9°C° 0 mm 5 mps 735 mmHg 80%
    04:00 +9°C° 0 mm 5 mps 735 mmHg 81%
    05:00 +9°C° 0 mm 5 mps 735 mmHg 79%
    06:00 +10°C° 0 mm 6 mps 736 mmHg 77%
    07:00 +10°C° 0 mm 6 mps 736 mmHg 74%
    08:00 +11°C° 0 mm 6 mps 736 mmHg 67%
    09:00 +14°C° 0 mm 6 mps 736 mmHg 61%
    10:00 +15°C° 0 mm 6 mps 736 mmHg 54%
    11:00 +16°C° 0 mm 6 mps 736 mmHg 50%
    12:00 +17°C° 0 mm 6 mps 736 mmHg 46%
    13:00 +19°C° 0 mm 6 mps 735 mmHg 43%
    14:00 +19°C° 0 mm 6 mps 735 mmHg 43%
    15:00 +19°C° 0 mm 6 mps 735 mmHg 43%
    16:00 +19°C° 0 mm 6 mps 735 mmHg 43%
    17:00 +17°C° 0 mm 5 mps 735 mmHg 46%
    18:00 +17°C° 0 mm 4 mps 735 mmHg 49%
    19:00 +16°C° 0 mm 3 mps 736 mmHg 53%
    20:00 +16°C° 0 mm 2 mps 736 mmHg 55%
    21:00 +15°C° 0 mm 2 mps 736 mmHg 57%
    22:00 +14°C° 0 mm 2 mps 736 mmHg 60%
    23:00 +14°C° 0 mm 2 mps 736 mmHg 61%

    21 August, Tuesday

    Time Temperature Precipitation Wind Pressure Humidity
    00:00 +13°C° 0 mm 2 mps 736 mmHg 62%
    01:00 +13°C° 0 mm 2 mps 736 mmHg 64%
    02:00 +13°C° 0 mm 2 mps 736 mmHg 66%
    03:00 +12°C° 0 mm 2 mps 737 mmHg 67%
    04:00 +12°C° 0 mm 2 mps 737 mmHg 69%
    05:00 +13°C° 0 mm 2 mps 737 mmHg 68%
    06:00 +12°C° 0 mm 3 mps 737 mmHg 67%
    07:00 +13°C° 0 mm 3 mps 737 mmHg 66%
    08:00 +15°C° 0 mm 4 mps 737 mmHg 60%
    09:00 +18°C° 0 mm 4 mps 738 mmHg 54%
    10:00 +20°C° 0 mm 5 mps 738 mmHg 48%
    11:00 +21°C° 0 mm 5 mps 737 mmHg 46%
    12:00 +22°C° 0 mm 5 mps 737 mmHg 45%
    13:00 +23°C° 0 mm 6 mps 737 mmHg 44%
    14:00 +23°C° 0 mm 6 mps 737 mmHg 45%
    15:00 +24°C° 0 mm 6 mps 736 mmHg 46%
    16:00 +24°C° 0 mm 6 mps 736 mmHg 47%
    17:00 +23°C° 0 mm 5 mps 736 mmHg 51%
    18:00 +22°C° 0 mm 5 mps 736 mmHg 54%
    19:00 +21°C° 0 mm 4 mps 736 mmHg 58%
    20:00 +21°C° 0 mm 4 mps 736 mmHg 60%
    21:00 +20°C° 0 mm 3 mps 736 mmHg 63%
    22:00 +19°C° 0 mm 3 mps 736 mmHg 65%
    23:00 +19°C° 0 mm 3 mps 736 mmHg 66%

    22 August, Wednesday

    Time Temperature Precipitation Wind Pressure Humidity
    00:00 +18°C° 0 mm 3 mps 736 mmHg 66%
    01:00 +18°C° 0 mm 3 mps 736 mmHg 67%
    02:00 +18°C° 0 mm 3 mps 736 mmHg 67%
    03:00 +17°C° 0 mm 3 mps 736 mmHg 67%
    04:00 +17°C° 0 mm 3 mps 736 mmHg 67%
    05:00 +18°C° 0 mm 4 mps 736 mmHg 64%
    06:00 +18°C° 0 mm 4 mps 736 mmHg 61%
    07:00 +19°C° 0 mm 4 mps 736 mmHg 58%
    08:00 +21°C° 0 mm 5 mps 736 mmHg 51%
    09:00 +23°C° 0 mm 5 mps 736 mmHg 45%
    10:00 +26°C° 0 mm 6 mps 736 mmHg 39%
    11:00 +27°C° 0 mm 6 mps 735 mmHg 36%
    12:00 +27°C° 0 mm 6 mps 735 mmHg 34%
    13:00 +28°C° 0 mm 7 mps 735 mmHg 32%
    14:00 +28°C° 0 mm 7 mps 734 mmHg 31%
    15:00 +29°C° 0 mm 7 mps 734 mmHg 29%
    16:00 +29°C° 0 mm 7 mps 734 mmHg 28%
    17:00 +27°C° 0 mm 5 mps 734 mmHg 32%
    18:00 +26°C° 0 mm 4 mps 734 mmHg 35%
    19:00 +24°C° 0 mm 3 mps 733 mmHg 39%
    20:00 +24°C° 0 mm 3 mps 733 mmHg 40%
    21:00 +22°C° 0 mm 3 mps 733 mmHg 40%
    22:00 +21°C° 0 mm 3 mps 733 mmHg 41%
    23:00 +21°C° 0 mm 3 mps 733 mmHg 41%

    23 August, Thursday

    Time Temperature Precipitation Wind Pressure Humidity
    00:00 +20°C° 0 mm 3 mps 732 mmHg 41%
    01:00 +20°C° 0 mm 4 mps 732 mmHg 42%
    02:00 +19°C° 0 mm 4 mps 732 mmHg 42%
    03:00 +19°C° 0 mm 4 mps 732 mmHg 42%
    04:00 +19°C° 0 mm 4 mps 731 mmHg 43%
    05:00 +19°C° 0.1 mm 4 mps 731 mmHg 49%
    06:00 +19°C° 0.1 mm 5 mps 731 mmHg 55%
    07:00 +19°C° 0.1 mm 5 mps 731 mmHg 62%
    08:00 +19°C° 0.3 mm 6 mps 732 mmHg 62%
    09:00 +19°C° 0.3 mm 6 mps 732 mmHg 62%
    10:00 +20°C° 0.3 mm 7 mps 732 mmHg 62%
    11:00 +20°C° 0.1 mm 7 mps 733 mmHg 56%
    12:00 +20°C° 0.1 mm 8 mps 733 mmHg 51%
    13:00 +21°C° 0.1 mm 8 mps 733 mmHg 45%
    14:00 +20°C° 0 mm 8 mps 733 mmHg 44%
    15:00 +20°C° 0 mm 8 mps 734 mmHg 44%
    16:00 +20°C° 0 mm 8 mps 734 mmHg 43%
    17:00 +17°C° 0 mm 7 mps 734 mmHg 46%
    18:00 +16°C° 0 mm 6 mps 735 mmHg 48%
    19:00 +15°C° 0 mm 5 mps 735 mmHg 51%
    20:00 +14°C° 0 mm 5 mps 735 mmHg 53%
    21:00 +13°C° 0 mm 4 mps 736 mmHg 56%
    22:00 +13°C° 0 mm 3 mps 736 mmHg 58%
    23:00 +12°C° 0 mm 4 mps 736 mmHg 61%
    Show more